Sterling, IL

1:57 AM CST on November 12, 2019 (GMT -0600)
Whiteside County-Bittorf

Weather History for KSQI - July, 2019

Change the Weather History Date:

Tuesday, July 23, 2019

  Actual Average Record
Temperature  
Mean Temperature 70 °F -  
Max Temperature 84 °F 81 °F 98 °F (2012)
Min Temperature 57 °F 60 °F 53 °F (2007)
Cooling Degree Days 4    
Growing Degree Days 20 (Base 50)    
Moisture  
Dew Point 58 °F    
Average Humidity 65    
Maximum Humidity 90    
Minimum Humidity 41    
Precipitation  
Precipitation 0.00 in - - ()
Sea Level Pressure  
Sea Level Pressure 29.74 in    
Wind  
Wind Speed 6 mph (NNW)    
Max Wind Speed 15 mph    
Max Gust Speed 22 mph    
Visibility 10 miles    
Events      
Averages and records for this station are not official NWS values.
T = Trace of Precipitation, MM = Missing Value Source: NWS Daily Summary

Daily Weather History Graph

Daily Weather History Graph

Search for Another Location

Airport or City:

Astronomy

Jul. 23, 2019 Rise Set
Actual Time 5:44 AM CDT 8:25 PM CDT
Civil Twilight 5:11 AM CDT 8:58 PM CDT
Nautical Twilight 4:31 AM CDT 9:38 PM CDT
Astronomical Twilight 3:44 AM CDT 10:24 PM CDT
Moon No Moon Rise 12:02 PM CDT (7/23)
Length of Visible Light 15h 46m
Length of Day
14h 41m
Waning Gibbous, 63% of the Moon is Illuminated
Jul 23
Waning Gibbous
Jul 24
Last Quarter
Jul 31
New
Aug 7
First Quarter
Aug 15
Full

Hourly Weather History & Observations

Time (CDT) Temp. Heat Index Dew Point Humidity Pressure Visibility Wind Dir Wind Speed Gust Speed Precip Events Conditions
12:56 AM 61.0 °F - 54.0 °F 78% 29.75 in 10.0 mi NW 3.5 mph - N/A   Clear
1:56 AM 60.1 °F - 54.0 °F 80% 29.75 in 10.0 mi WNW 3.5 mph - N/A   Clear
2:56 AM 59.0 °F - 55.0 °F 87% 29.74 in 10.0 mi West 5.8 mph - N/A   Clear
3:56 AM 59.0 °F - 54.0 °F 83% 29.74 in 10.0 mi West 5.8 mph - N/A   Clear
4:56 AM 57.9 °F - 55.0 °F 90% 29.75 in 10.0 mi West 5.8 mph - N/A   Clear
5:56 AM 57.9 °F - 55.0 °F 90% 29.76 in 10.0 mi WNW 4.6 mph - N/A   Clear
6:56 AM 62.1 °F - 57.0 °F 84% 29.76 in 10.0 mi WNW 3.5 mph - N/A   Clear
7:56 AM 68.0 °F - 59.0 °F 73% 29.77 in 10.0 mi WNW 5.8 mph - N/A   Clear
8:56 AM 73.0 °F - 61.0 °F 66% 29.77 in 10.0 mi NW 6.9 mph - N/A   Clear
9:56 AM 75.9 °F - 62.1 °F 62% 29.77 in 10.0 mi North 12.7 mph - N/A   Clear
10:56 AM 78.1 °F - 60.1 °F 54% 29.76 in 10.0 mi North 10.4 mph 18.4 mph N/A   Clear
11:56 AM 80.1 °F 80.6 °F 57.9 °F 47% 29.75 in 10.0 mi North 15.0 mph - N/A   Clear
12:56 PM 82.0 °F 82.1 °F 59.0 °F 45% 29.75 in 10.0 mi NNW 10.4 mph 19.6 mph N/A   Clear
1:56 PM 82.9 °F 82.8 °F 59.0 °F 44% 29.74 in 10.0 mi North 13.8 mph 21.9 mph N/A   Partly Cloudy
2:56 PM 82.9 °F 82.6 °F 57.9 °F 42% 29.73 in 10.0 mi North 13.8 mph 19.6 mph N/A   Scattered Clouds
3:56 PM 82.0 °F 82.1 °F 59.0 °F 45% 29.72 in 10.0 mi NNW 9.2 mph - N/A   Scattered Clouds
4:56 PM 82.9 °F 82.4 °F 57.0 °F 41% 29.72 in 10.0 mi North 11.5 mph 17.3 mph N/A   Clear
5:56 PM 80.1 °F 80.4 °F 57.0 °F 45% 29.71 in 10.0 mi NNW 11.5 mph 18.4 mph N/A   Scattered Clouds
6:56 PM 80.1 °F 80.7 °F 59.0 °F 48% 29.71 in 10.0 mi NNW 8.1 mph - N/A   Clear
7:56 PM 75.9 °F - 60.1 °F 58% 29.72 in 10.0 mi North 5.8 mph - N/A   Clear
8:56 PM 73.0 °F - 61.0 °F 66% 29.71 in 10.0 mi Calm Calm - N/A   Clear
9:56 PM 70.0 °F - 61.0 °F 73% 29.73 in 10.0 mi North 3.5 mph - N/A   Clear
10:56 PM 69.1 °F - 62.1 °F 78% 29.74 in 10.0 mi North 3.5 mph - N/A   Clear
11:56 PM 66.0 °F - 61.0 °F 84% 29.74 in 10.0 mi North 3.5 mph - N/A   Clear